Milan, NM

10:40 PM MST on February 24, 2017 (GMT -0700)
Grants-Milan Municipal

Weather History for KGNT - November, 2012

Change the Weather History Date:

Sunday, November 11, 2012

  Actual Average Record
Temperature  
Mean Temperature 25 °F -  
Max Temperature 34 °F 57 °F 75 °F (1980)
Min Temperature 16 °F 25 °F 10 °F (2006)
Degree Days  
Heating Degree Days 40    
Moisture  
Dew Point 16 °F    
Average Humidity 65    
Maximum Humidity 94    
Minimum Humidity 35    
Precipitation  
Precipitation 0.00 in - - ()
Sea Level Pressure  
Sea Level Pressure 30.16 in    
Wind  
Wind Speed 11 mph (NW)    
Max Wind Speed 25 mph    
Max Gust Speed 34 mph    
Visibility 10 miles    
Events Snow    
Averages and records for this station are not official NWS values.
T = Trace of Precipitation, MM = Missing Value Source: NWS Daily Summary

Daily Weather History Graph

Daily Weather History Graph

Search for Another Location

Airport or City:

Trip Planner

Search our weather history database for the weather conditions in past years. The results will help you decide how hot, cold, wet, or windy it might be!

Date:

Astronomy

Nov. 11, 2012 Rise Set
Actual Time 6:43 AM MST 5:07 PM MST
Civil Twilight 6:16 AM MST 5:34 PM MST
Nautical Twilight 5:45 AM MST 6:05 PM MST
Astronomical Twilight 5:15 AM MST 6:35 PM MST
Moon 4:05 AM MST (11/11) 3:30 PM MST (11/11)
Length of Visible Light 11h 18m
Length of Day
10h 24m
Waning Crescent, 7% of the Moon is Illuminated
Nov 11
Waning Crescent
Nov 13
New
Nov 20
First Quarter
Nov 28
Full
Dec 6
Last Quarter

Hourly Weather History & Observations

Time (MST) Temp. Windchill Dew Point Humidity Pressure Visibility Wind Dir Wind Speed Gust Speed Precip Events Conditions
12:15 AM 27.1 °F 17.5 °F 25.0 °F 92% 29.93 in 5.0 mi NW 10.4 mph 16.1 mph N/A Snow Light Snow
12:35 AM 24.1 °F - 21.2 °F 89% 29.93 in 10.0 mi Calm Calm - N/A   Overcast
12:55 AM 23.2 °F - 21.6 °F 94% 29.94 in 10.0 mi Calm Calm - N/A   Overcast
1:15 AM 26.1 °F 18.4 °F 21.9 °F 84% 29.96 in 10.0 mi NW 6.9 mph - N/A   Overcast
1:35 AM 27.5 °F 17.4 °F 22.5 °F 81% 29.96 in 10.0 mi WNW 11.5 mph 17.3 mph N/A   Overcast
1:55 AM 27.1 °F 18.2 °F 22.1 °F 81% 29.96 in 10.0 mi WNW 9.2 mph - N/A   Overcast
2:15 AM 25.7 °F 18.0 °F 21.0 °F 82% 29.96 in 10.0 mi NW 6.9 mph - N/A   Overcast
2:35 AM 27.0 °F 18.0 °F 22.3 °F 83% 29.96 in 10.0 mi West 9.2 mph - N/A   Overcast
2:55 AM 26.6 °F 15.2 °F 19.8 °F 75% 29.97 in 10.0 mi West 13.8 mph 18.4 mph N/A   Mostly Cloudy
3:15 AM 25.0 °F 13.6 °F 18.9 °F 78% 29.98 in 10.0 mi West 12.7 mph - N/A   Scattered Clouds
3:35 AM 25.5 °F 12.4 °F 18.1 °F 74% 29.98 in 10.0 mi West 17.3 mph 24.2 mph N/A   Clear
3:55 AM 23.9 °F 12.3 °F 17.6 °F 77% 29.98 in 10.0 mi West 12.7 mph - N/A   Clear
4:15 AM 24.4 °F 11.9 °F 17.4 °F 75% 29.99 in 10.0 mi West 15.0 mph 20.7 mph N/A   Clear
4:35 AM 24.4 °F 10.2 °F 16.7 °F 72% 29.99 in 10.0 mi West 19.6 mph 27.6 mph N/A   Clear
4:55 AM 24.1 °F 10.6 °F 16.3 °F 72% 29.99 in 10.0 mi West 17.3 mph 23.0 mph N/A   Clear
5:15 AM 23.9 °F 11.2 °F 16.2 °F 72% 30.01 in 10.0 mi West 15.0 mph 20.7 mph N/A   Clear
5:35 AM 23.9 °F 10.8 °F 15.6 °F 71% 30.02 in 10.0 mi West 16.1 mph 20.7 mph N/A   Clear
5:55 AM 23.9 °F 11.2 °F 14.9 °F 69% 30.02 in 10.0 mi West 15.0 mph - N/A   Clear
6:15 AM 23.7 °F 10.1 °F 14.9 °F 69% 30.02 in 10.0 mi West 17.3 mph 24.2 mph N/A   Clear
6:35 AM 23.5 °F 13.0 °F 14.0 °F 67% 30.05 in 10.0 mi NNW 10.4 mph 21.9 mph N/A   Clear
6:55 AM 19.0 °F 10.0 °F 12.7 °F 76% 30.07 in 10.0 mi NW 6.9 mph - N/A   Clear
7:15 AM 20.5 °F 14.0 °F 13.1 °F 73% 30.07 in 10.0 mi NW 4.6 mph - N/A   Clear
7:35 AM 21.0 °F 12.4 °F 14.2 °F 75% 30.09 in 10.0 mi NW 6.9 mph - N/A   Clear
7:55 AM 24.8 °F 14.6 °F 15.4 °F 68% 30.10 in 10.0 mi North 10.4 mph - N/A   Clear
8:55 AM 27.7 °F 17.6 °F 18.5 °F 68% 30.12 in 10.0 mi North 11.5 mph - N/A   Clear
9:15 AM 28.9 °F 21.9 °F 18.3 °F 65% 30.13 in 10.0 mi NNW 6.9 mph 18.4 mph N/A   Clear
9:35 AM 29.8 °F 20.9 °F 18.7 °F 63% 30.13 in 10.0 mi NNW 10.4 mph - N/A   Clear
9:55 AM 30.2 °F 17.4 °F 14.5 °F 52% 30.14 in 10.0 mi WNW 20.7 mph 28.8 mph N/A   Clear
10:15 AM 31.1 °F 19.7 °F 15.6 °F 53% 30.15 in 10.0 mi WNW 17.3 mph 21.9 mph N/A   Clear
10:35 AM 31.6 °F 20.7 °F 14.7 °F 50% 30.16 in 10.0 mi WNW 16.1 mph 24.2 mph N/A   Clear
10:55 AM 31.8 °F 21.8 °F 14.7 °F 49% 30.16 in 10.0 mi WNW 13.8 mph 19.6 mph N/A   Clear
11:15 AM 32.0 °F 21.2 °F 14.7 °F 49% 30.16 in 10.0 mi WNW 16.1 mph 21.9 mph N/A   Clear
11:35 AM 32.2 °F 22.3 °F 15.3 °F 50% 30.16 in 10.0 mi NW 13.8 mph 19.6 mph N/A   Clear
11:55 AM 32.9 °F 22.0 °F 16.9 °F 52% 30.16 in 10.0 mi NNW 17.3 mph 20.7 mph N/A   Scattered Clouds
12:15 PM 32.0 °F 20.8 °F 14.2 °F 48% 30.15 in 10.0 mi NNW 17.3 mph - N/A   Scattered Clouds
12:35 PM 32.2 °F 20.7 °F 13.6 °F 46% 30.15 in 10.0 mi NW 18.4 mph - N/A   Mostly Cloudy
12:55 PM 32.4 °F 21.3 °F 15.6 °F 50% 30.15 in 10.0 mi NW 17.3 mph 21.9 mph N/A   Mostly Cloudy
1:15 PM 33.6 °F 22.6 °F 13.5 °F 44% 30.15 in 10.0 mi NW 18.4 mph 24.2 mph N/A   Scattered Clouds
1:35 PM 32.5 °F 20.5 °F 11.7 °F 42% 30.16 in 10.0 mi NW 20.7 mph 27.6 mph N/A   Scattered Clouds
1:55 PM 33.3 °F 20.3 °F 9.9 °F 38% 30.16 in 10.0 mi WNW 25.3 mph 33.4 mph N/A   Clear
2:15 PM 33.8 °F 21.9 °F 11.5 °F 40% 30.17 in 10.0 mi NW 21.9 mph 29.9 mph N/A   Clear
2:35 PM 34.3 °F 22.3 °F 9.1 °F 35% 30.18 in 10.0 mi NW 23.0 mph 34.5 mph N/A   Scattered Clouds
2:55 PM 34.2 °F 22.6 °F 10.6 °F 38% 30.19 in 10.0 mi NW 20.7 mph 31.1 mph N/A   Clear
3:15 PM 34.3 °F 22.9 °F 13.1 °F 42% 30.20 in 10.0 mi NW 20.7 mph 27.6 mph N/A   Clear
3:35 PM 34.2 °F 23.3 °F 13.3 °F 42% 30.21 in 10.0 mi NW 18.4 mph 26.5 mph N/A   Clear
3:55 PM 34.0 °F 23.0 °F 11.5 °F 39% 30.21 in 10.0 mi NW 18.4 mph 27.6 mph N/A   Clear
4:15 PM 33.6 °F 23.3 °F 12.9 °F 43% 30.22 in 10.0 mi NW 16.1 mph 24.2 mph N/A   Clear
4:35 PM 32.9 °F 24.7 °F 13.1 °F 44% 30.23 in 10.0 mi NW 10.4 mph - N/A   Clear
4:55 PM 32.2 °F 22.7 °F 13.5 °F 46% 30.24 in 10.0 mi WNW 12.7 mph 17.3 mph N/A   Clear
5:15 PM 31.1 °F 23.1 °F 14.9 °F 51% 30.24 in 10.0 mi NW 9.2 mph - N/A   Clear
5:35 PM 30.0 °F 22.4 °F 15.6 °F 55% 30.26 in 10.0 mi NW 8.1 mph - N/A   Clear
5:55 PM 27.7 °F 21.3 °F 16.9 °F 64% 30.26 in 10.0 mi WNW 5.8 mph - N/A   Clear
6:15 PM 28.8 °F 21.7 °F 15.4 °F 58% 30.26 in 10.0 mi West 6.9 mph - N/A   Clear
6:35 PM 27.9 °F 20.6 °F 15.4 °F 60% 30.27 in 10.0 mi WNW 6.9 mph - N/A   Clear
6:55 PM 26.8 °F 22.8 °F 15.6 °F 63% 30.28 in 10.0 mi NNW 3.5 mph - N/A   Clear
7:15 PM 25.7 °F 20.1 °F 16.2 °F 67% 30.29 in 10.0 mi North 4.6 mph - N/A   Clear
7:35 PM 25.2 °F 19.5 °F 16.3 °F 69% 30.30 in 10.0 mi North 4.6 mph - N/A   Clear
7:55 PM 23.0 °F 17.0 °F 16.2 °F 75% 30.31 in 10.0 mi WNW 4.6 mph - N/A   Clear
8:15 PM 23.0 °F 13.9 °F 15.6 °F 73% 30.32 in 10.0 mi NW 8.1 mph - N/A   Clear
8:35 PM 23.4 °F 17.4 °F 15.4 °F 72% 30.32 in 10.0 mi NW 4.6 mph - N/A   Clear
8:55 PM 21.7 °F 14.3 °F 15.3 °F 76% 30.33 in 10.0 mi NW 5.8 mph - N/A   Clear
9:15 PM 23.2 °F 16.0 °F 15.4 °F 72% 30.34 in 10.0 mi North 5.8 mph - N/A   Clear
9:35 PM 20.5 °F 11.7 °F 14.9 °F 79% 30.35 in 10.0 mi NNW 6.9 mph - N/A   Clear
9:55 PM 22.8 °F - 14.5 °F 71% 30.36 in 10.0 mi Calm Calm - N/A   Clear
10:15 PM 20.1 °F - 14.4 °F 78% 30.36 in 10.0 mi Calm Calm - N/A   Clear
10:35 PM 18.7 °F - 13.5 °F 80% 30.37 in 10.0 mi Calm Calm - N/A   Clear
10:55 PM 17.4 °F - 13.8 °F 86% 30.38 in 10.0 mi Calm Calm - N/A   Clear
11:15 PM 16.5 °F 8.1 °F 13.5 °F 88% 30.38 in 10.0 mi NW 5.8 mph - N/A   Clear
11:35 PM 17.1 °F 8.7 °F 13.5 °F 86% 30.38 in 10.0 mi WNW 5.8 mph - N/A   Clear
11:55 PM 17.1 °F 8.7 °F 12.7 °F 83% 30.39 in 10.0 mi NW 5.8 mph - N/A   Clear